Find OneWeb SL0291

NORAD ID: 49081 Int'l Des: 2021-075 Owner: ONEWEBN Country: UK Constellation: oneweb operational
LEOCIRCULARPOLARONEWEB_TYPE

当前视图

正在加载3D地球...

About OneWeb SL0291

OneWeb SL0291 (NORAD 49081) is a oneweb constellation satellite launched Aug 21, 2021 by ONEWEBN of UK. It operates in LEO, CIRCULAR, POLAR, ONEWEB_TYPE orbit with a mass of 148.00 kg.

关于 OneWeb SL0291

正在加载描述...

即将过境

Passes for default location (London). Set your location on the main map for personalized predictions.

高度历史

Loading altitude history...

两行轨道根数

1 49081U 21075G 26169.07451761 .00000052 00000-0 10095-3 0 9997
2 49081 87.9135 5.6856 0002186 92.7337 267.4045 13.17648846233728
Epoch: Jun 18, 2026 • Age: 12 hours

当前状态

高度 1218.2 km
速度 7.24 km/s
星下点 -59.64°S, 73.29°E
发射日期 Aug 21, 2021
运行时间 4.8 years
类型 internet

技术详情

分类 Payload
质量 148.00 kg
干质量 140.00 kg
总质量 148.00 kg
长度 1.30 m
直径 1.00 m
跨度 5.00 m
形状 Trapezoid+2 pan
制造商 ONEWUS
平台类型 ARROW
阶段状态 In Orbit
所有者/国家 ONEWEBN/UK

Most Searched